Location: �perlecques
(50.8057°N, 2.1521°E)
Time: 20:55:51
(UTC+00:00)

Tiros 1 - Pass Details

Date: 10 August 2021
Orbit: 630 x 663 km, 48.4° (Epoch: 28 September)

Event Time Altitude Azimuth Distance (km) Brightness Sun altitude
Rises 13:26:56 0° 194° (SSW) 2,982 11.1 50.2°
Reaches altitude 10° 13:30:17 10° 170° (S) 2,075 10.3 49.9°
Maximum altitude 13:32:47 14° 138° (SE) 1,809 9.7 49.7°
Drops below altitude 10° 13:35:18 10° 107° (ESE) 2,078 9.7 49.4°
Sets 13:38:39 0° 83° (E) 2,991 10.3 49.1°
